SCP
0 0 0 0 0 0 0 0 0 0 0 0 0 0 0 0 0 0 0 0 0 0
0 0 0 0 0 0 0 0 0 0 0 0 0 0 0 0 0 0 0 0 0 0
0 0 0 0 0 0 0 0 0 0 0 0 0 0 0 0 0 0 0 0 0 0
0 0 0 0 0 0 0 0 0 0 0 0 0 0 0 0 0 0 0 0 0 0
0 0 0 0 0 0 0 0 0 0 0 0 0 0 0 0 0 0 0 0 0 0
0 0 0 0 0 0 0 0 0 0 0 0 0 0 0 0 0 0 0 0 0 0
0 0 0 0 0 0 0 0 0 0 0 0 0 0 0 0 0 0 0 0 0 0
0 0 0 0 0 0 0 0 0 0 0 0 0 0 0 0 0 0 0 0 0 0
0 0 0 0 0 0 0 0 0 0 0 0 0 0 0 0 0 0 0 0 0 0
0 0 0 0 0 0 0 0 0 0 0 0 0 0 0 0 0 0 0 0 0 0
0 0 0 0 0 0 0 0 0 0 0 0 0 0 0 0 0 0 0 0 0 0
0 0 0 0 0 0 0 0 0 0 0 0 0 0 0 0 0 0 0 0 0 0
0 0 0 0 0 0 0 0 0 0 0 0 0 0 0 0 0 0 0 0 0 0
0 0 0 0 0 0 0 0 0 0 0 0 0 0 0 0 0 0 0 0 0 0
Wind_Speed_500mb
96 99 96 93 91 91 91 90 83 79 75 74 74 70 73 74 70 65 64 63 60 59
103 103 103 100 94 93 91 91 86 81 76 72 68 70 74 74 70 67 65 62 59 58
105 107 108 105 103 101 97 95 92 87 81 75 72 73 74 73 72 69 67 61 59 55
103 107 107 109 107 104 99 97 96 93 89 83 78 76 76 76 74 71 66 60 56 56
97 102 107 111 110 108 105 99 97 94 93 88 84 79 78 77 76 71 65 60 58 58
90 92 104 111 111 109 107 101 96 95 94 92 86 83 81 79 75 67 64 60 61 58
91 100 104 107 107 107 108 104 98 94 95 91 86 83 79 75 69 65 65 60 59 56
76 84 92 99 105 104 104 105 101 96 94 88 85 82 78 74 69 67 63 61 61 60
73 77 87 92 97 100 101 102 100 97 90 87 84 77 72 66 66 65 63 62 59 57
88 81 84 87 89 98 100 101 101 95 87 86 78 72 68 67 66 64 61 57 56 54
87 83 80 85 89 95 93 98 98 91 86 77 73 73 71 67 66 64 61 59 56 52
92 86 81 85 85 87 88 89 91 88 82 79 76 74 72 69 68 65 62 57 55 52
96 95 92 87 85 89 89 91 90 84 82 79 75 72 70 69 67 62 59 57 56 56
98 95 95 95 89 88 91 92 87 87 85 80 75 73 71 68 65 62 61 59 57 52
Wind_Direction_500mb
244 245 247 247 248 248 251 255 257 256 253 251 251 249 248 250 251 253 254 255 258 263
244 244 246 247 246 248 250 252 255 256 255 250 248 245 244 246 247 249 254 256 258 259
248 248 248 246 246 247 248 248 250 252 252 250 246 242 240 242 244 249 252 254 255 256
252 251 250 249 248 247 247 247 247 249 249 248 245 241 238 240 243 248 251 252 252 252
252 253 251 249 249 248 246 245 245 247 246 247 246 243 239 240 242 245 248 247 246 250
255 252 254 254 250 248 245 243 242 242 242 243 244 242 240 239 242 243 245 242 242 244
261 259 257 255 251 248 246 241 240 240 241 242 242 238 236 237 238 239 241 240 242 240
278 263 257 253 252 248 245 242 239 237 237 239 236 235 235 235 236 237 239 240 239 245
287 275 261 254 249 247 245 242 238 234 234 234 235 237 237 237 237 240 239 240 241 244
286 278 268 256 249 247 244 242 235 233 233 234 235 235 233 233 236 237 240 241 242 242
283 282 272 259 250 247 244 241 238 234 235 233 230 229 231 232 234 234 235 238 240 240
288 281 274 261 252 244 239 236 236 235 232 228 225 227 230 232 233 233 234 235 237 239
293 281 271 262 252 244 240 237 234 230 226 225 226 229 232 234 233 233 233 232 234 237
294 281 273 260 250 244 239 233 228 225 224 224 225 228 232 235 234 234 232 232 232 232
Wind_Speed_850mb
96 99 96 93 91 91 91 90 83 79 75 74 74 70 73 74 70 65 64 63 60 59
103 103 103 100 94 93 91 91 86 81 76 72 68 70 74 74 70 67 65 62 59 58
105 107 108 105 103 101 97 95 92 87 81 75 72 73 74 73 72 69 67 61 59 55
103 107 107 109 107 104 99 97 96 93 89 83 78 76 76 76 74 71 66 60 56 56
97 102 107 111 110 108 105 99 97 94 93 88 84 79 78 77 76 71 65 60 58 58
90 92 104 111 111 109 107 101 96 95 94 92 86 83 81 79 75 67 64 60 61 58
91 100 104 107 107 107 108 104 98 94 95 91 86 83 79 75 69 65 65 60 59 56
76 84 92 99 105 104 104 105 101 96 94 88 85 82 78 74 69 67 63 61 61 60
73 77 87 92 97 100 101 102 100 97 90 87 84 77 72 66 66 65 63 62 59 57
88 81 84 87 89 98 100 101 101 95 87 86 78 72 68 67 66 64 61 57 56 54
87 83 80 85 89 95 93 98 98 91 86 77 73 73 71 67 66 64 61 59 56 52
92 86 81 85 85 87 88 89 91 88 82 79 76 74 72 69 68 65 62 57 55 52
96 95 92 87 85 89 89 91 90 84 82 79 75 72 70 69 67 62 59 57 56 56
98 95 95 95 89 88 91 92 87 87 85 80 75 73 71 68 65 62 61 59 57 52
Wind_Direction_850mb
244 245 247 247 248 248 251 255 257 256 253 251 251 249 248 250 251 253 254 255 258 263
244 244 246 247 246 248 250 252 255 256 255 250 248 245 244 246 247 249 254 256 258 259
248 248 248 246 246 247 248 248 250 252 252 250 246 242 240 242 244 249 252 254 255 256
252 251 250 249 248 247 247 247 247 249 249 248 245 241 238 240 243 248 251 252 252 252
252 253 251 249 249 248 246 245 245 247 246 247 246 243 239 240 242 245 248 247 246 250
255 252 254 254 250 248 245 243 242 242 242 243 244 242 240 239 242 243 245 242 242 244
261 259 257 255 251 248 246 241 240 240 241 242 242 238 236 237 238 239 241 240 242 240
278 263 257 253 252 248 245 242 239 237 237 239 236 235 235 235 236 237 239 240 239 245
287 275 261 254 249 247 245 242 238 234 234 234 235 237 237 237 237 240 239 240 241 244
286 278 268 256 249 247 244 242 235 233 233 234 235 235 233 233 236 237 240 241 242 242
283 282 272 259 250 247 244 241 238 234 235 233 230 229 231 232 234 234 235 238 240 240
288 281 274 261 252 244 239 236 236 235 232 228 225 227 230 232 233 233 234 235 237 239
293 281 271 262 252 244 240 237 234 230 226 225 226 229 232 234 233 233 233 232 234 237
294 281 273 260 250 244 239 233 228 225 224 224 225 228 232 235 234 234 232 232 232 232